Fairfield, NJ

2:15 AM EST on January 20, 2017 (GMT -0500)
Essex County

Weather History for KCDW - June, 2013

Change the Weather History Date:

Monday, June 10, 2013

  Actual Average Record
Temperature  
Mean Temperature 66 °F -  
Max Temperature 69 °F 79 °F 96 °F (2008)
Min Temperature 62 °F 55 °F 41 °F (1980)
Growing Degree Days 16 (Base 50)    
Moisture  
Dew Point 63 °F    
Average Humidity 92    
Maximum Humidity 100    
Minimum Humidity 84    
Precipitation  
Precipitation 0.60 in - - ()
Sea Level Pressure  
Sea Level Pressure 30.05 in    
Wind  
Wind Speed 6 mph (East)    
Max Wind Speed 25 mph    
Max Gust Speed 32 mph    
Visibility 6 miles    
Events Rain    
Averages and records for this station are not official NWS values.
T = Trace of Precipitation, MM = Missing Value Source: NWS Daily Summary

Daily Weather History Graph

Daily Weather History Graph

Search for Another Location

Airport or City:

Trip Planner

Search our weather history database for the weather conditions in past years. The results will help you decide how hot, cold, wet, or windy it might be!

Date:

Astronomy

Jun. 10, 2013 Rise Set
Actual Time 5:25 AM EDT 8:28 PM EDT
Civil Twilight 4:51 AM EDT 9:01 PM EDT
Nautical Twilight 4:09 AM EDT 9:44 PM EDT
Astronomical Twilight 3:19 AM EDT 10:34 PM EDT
Moon 7:11 AM EDT (6/10) 9:52 PM EDT (6/10)
Length of Visible Light 16h 10m
Length of Day
15h 03m
Waxing Crescent, 4% of the Moon is Illuminated
Jun 10
Waxing Crescent
Jun 16
First Quarter
Jun 23
Full
Jun 30
Last Quarter
Jul 8
New

Hourly Weather History & Observations

Time (EDT) Temp. Dew Point Humidity Pressure Visibility Wind Dir Wind Speed Gust Speed Precip Events Conditions
12:53 AM 64.9 °F 60.1 °F 84% 30.18 in 10.0 mi Calm Calm - N/A   Overcast
1:53 AM 64.9 °F 60.1 °F 84% 30.18 in 10.0 mi Calm Calm - N/A   Mostly Cloudy
2:53 AM 64.0 °F 60.1 °F 87% 30.17 in 10.0 mi Calm Calm - N/A   Mostly Cloudy
3:53 AM 64.0 °F 60.1 °F 87% 30.16 in 10.0 mi Calm Calm - N/A   Partly Cloudy
4:53 AM 64.0 °F 60.1 °F 87% 30.16 in 10.0 mi Calm Calm - N/A   Overcast
5:53 AM 64.0 °F 60.1 °F 87% 30.15 in 10.0 mi NE 3.5 mph - N/A   Mostly Cloudy
6:53 AM 66.0 °F 62.1 °F 87% 30.15 in 9.0 mi East 25.3 mph 32.2 mph N/A   Overcast
7:53 AM 66.9 °F 62.1 °F 84% 30.15 in 8.0 mi North - - N/A   Partly Cloudy
8:53 AM 66.9 °F 64.0 °F 90% 30.16 in 6.0 mi North - - 0.00 in Rain Light Rain
9:53 AM 68.0 °F 64.9 °F 90% 30.14 in 4.0 mi East 6.9 mph - 0.00 in Rain Light Rain
10:17 AM 68.0 °F 66.2 °F 94% 30.12 in 3.0 mi ENE 5.8 mph - 0.01 in Rain Light Rain
10:35 AM 69.8 °F 66.2 °F 88% 30.12 in 2.5 mi Variable 3.5 mph - 0.04 in Rain Light Rain
10:50 AM 69.8 °F 66.2 °F 88% 30.12 in 2.5 mi SE 3.5 mph - 0.06 in Rain Light Rain
10:53 AM 69.1 °F 66.0 °F 90% 30.14 in 2.5 mi ESE 5.8 mph - 0.06 in Rain Light Rain
11:09 AM 68.0 °F 64.4 °F 88% 30.12 in 1.5 mi SE 8.1 mph - 0.04 in Rain Rain
11:17 AM 66.2 °F 64.4 °F 94% 30.12 in 2.0 mi ESE 4.6 mph - 0.06 in Rain Light Rain
11:28 AM 68.0 °F 66.2 °F 94% 30.12 in 4.0 mi SE 9.2 mph - 0.06 in Rain Light Rain
11:53 AM 66.9 °F 62.1 °F 84% 30.13 in 10.0 mi Variable 6.9 mph 17.3 mph 0.06 in   Overcast
12:04 PM 66.2 °F 62.6 °F 88% 30.10 in 10.0 mi ESE 11.5 mph 16.1 mph N/A   Overcast
12:37 PM 66.2 °F 64.4 °F 94% 30.09 in 9.0 mi ESE 8.1 mph - N/A   Overcast
12:53 PM 66.9 °F 63.0 °F 87% 30.10 in 9.0 mi East 13.8 mph 20.7 mph N/A   Overcast
1:53 PM 66.0 °F 62.1 °F 87% 30.07 in 6.0 mi ESE 16.1 mph 21.9 mph 0.00 in Rain Light Rain
2:51 PM 66.2 °F 64.4 °F 94% 30.03 in 4.0 mi East 11.5 mph 24.2 mph 0.00 in Rain Light Rain
2:53 PM 66.0 °F 64.0 °F 93% 30.04 in 4.0 mi East 12.7 mph 24.2 mph 0.01 in Rain Light Rain
3:12 PM 64.4 °F 62.6 °F 94% 30.02 in 4.0 mi ESE 11.5 mph - 0.03 in Rain Rain
3:26 PM 64.4 °F 62.6 °F 94% 30.01 in 2.5 mi ESE 10.4 mph 21.9 mph 0.05 in Rain Light Rain
3:48 PM 64.4 °F 62.6 °F 94% 30.00 in 4.0 mi East 9.2 mph - 0.06 in Rain Light Rain
3:53 PM 64.9 °F 63.0 °F 93% 30.01 in 3.0 mi East 9.2 mph - 0.08 in Rain Rain
4:01 PM 64.4 °F 62.6 °F 94% 30.00 in 2.5 mi East 8.1 mph - 0.00 in Rain Light Rain
4:10 PM 64.4 °F 62.6 °F 94% 29.99 in 3.0 mi East 8.1 mph - 0.01 in Rain Light Rain
4:53 PM 64.9 °F 63.0 °F 93% 29.99 in 10.0 mi ESE 9.2 mph 19.6 mph 0.03 in Rain Light Rain
5:18 PM 64.4 °F 62.6 °F 94% 29.97 in 2.0 mi East 8.1 mph - 0.07 in Rain Rain
5:25 PM 64.4 °F 64.4 °F 100% 29.96 in 3.0 mi East 6.9 mph - 0.08 in Rain Light Rain
5:53 PM 64.0 °F 63.0 °F 96% 29.96 in 5.0 mi East 6.9 mph - 0.08 in Rain Light Rain
6:53 PM 64.0 °F 64.0 °F 100% 29.95 in 3.0 mi East 5.8 mph - 0.09 in Rain Rain
7:38 PM 64.4 °F 64.4 °F 100% 29.92 in 2.0 mi East 8.1 mph - 0.06 in Rain Rain
7:48 PM 64.4 °F 64.4 °F 100% 29.91 in 5.0 mi East 9.2 mph - 0.06 in Rain Light Rain
7:53 PM 64.0 °F 64.0 °F 100% 29.93 in 5.0 mi East 9.2 mph - 0.06 in Rain Light Rain
8:53 PM 63.0 °F 63.0 °F 100% 29.90 in 6.0 mi ENE 5.8 mph - 0.12 in Rain Light Rain
9:53 PM 63.0 °F 62.1 °F 97% 29.90 in 10.0 mi East 5.8 mph 17.3 mph 0.01 in   Overcast
10:53 PM 62.1 °F 62.1 °F 100% 29.87 in 4.0 mi Variable 6.9 mph - N/A   Overcast
11:53 PM 62.1 °F 62.1 °F 100% 29.84 in 4.0 mi Variable 4.6 mph - 0.00 in   Overcast